Other Public Products
Issued by NWS Grand Forks, ND

Home | Current Version | Previous Version | Graphics & Text | Print | Product List | Glossary On
Versions: 1 2 3 4 5 6 7 8 9 10 11 12 13 14 15 16 17 18 19 20 21 22 23 24 25 26 27 28 29 30 31 32 33 34 35 36 37 38 39 40 41 42 43 44 45 46 47 48 49 50
000
FPUS83 KFGF 210831
OPUFGF
PRAIRIE TO PINES WEATHER ROUNDUP
NATIONAL WEATHER SERVICE EASTERN NORTH DAKOTA/GRAND FORKS ND
200 AM CST WED FEB 21 2018

 **SATELLITE DATA USED TO AUGMENT SKY COVER AT AUTOMATED STATIONS**
 *****  WEATHER ACROSS EASTERN NORTH DAKOTA  *****

CITY           SKY/WX    TMP DP  RH WIND       PRES   REMARKS
GRAND FORKS    FAIR       2  -5  72 W9        30.28R WCI -13
GRND FORKS AFB NOT AVBL
GRND FORKS NWS   N/A      0  -4  82 W6        30.25R WCI -11
BUXTON           N/A      0  -2  94 SW10        N/A  WCI -16
DEVILS LAKE    FAIR      -2  -7  79 W16       30.23S WCI -23
FARGO          FAIR       0  -7  72 SW14      30.35R WCI -19
WAHPETON ARPT  FAIR      -4 -11  71 W9        30.40R WCI -20
$$

 *****  WEATHER ACROSS CENTRAL AND WESTERN NORTH DAKOTA  *****

CITY           SKY/WX    TMP DP  RH WIND       PRES   REMARKS
JAMESTOWN      FAIR       2  -6  69 W7        30.28R WCI -11
BISMARCK       FAIR      -4 -11  72 SW8       30.33R WCI -19
MINOT          FAIR       0 -10  63 SW15      30.22R WCI -19
MINOT AFB      FAIR      -2 -10  67 W9        30.21R WCI -18
GARRISON         N/A     -6 -13  71 W15       30.24R WCI -27
WILLISTON      FAIR     -12 -16  82 SW6       30.25S WCI -26
DICKINSON      FAIR     -10 -18  67 W12       30.21S WCI -30
HETTINGER      FAIR     -13 -19  75 NW8       30.26S WCI -30
$$

 *****  OTHER OBSERVATIONS NORTHEAST NORTH DAKOTA  *****

CITY           SKY/WX    TMP DP  RH WIND       PRES   REMARKS
WALHALLA       FAIR       5  -4  66 W17G24    30.18S WCI -14
LANGDON        FAIR      -4  -8  84 W17       30.17R WCI -26
CAVALIER         N/A      3  -4  72 NW10G17   30.21S WCI -12
GRAFTON        FAIR       1  -6  71 SW12      30.27R WCI -15
CANDO          FAIR      -4  -9  77 W14       30.24R WCI -24
FORT TOTTEN      N/A     -1 -10  66 W6        29.95S WCI -13
ROLLA          FAIR      -6 -11  77 SW10      30.17R WCI -23
RUGBY          FAIR      -6 -13  71 SW10      30.23S WCI -23
 ***** THE ABOVE OBSERVATIONS ARE NON NWS ARE NOT QUALITY
        CONTROLLED AND MAY MIS-REPORT RAIN FOR SNOW...
$$

 *****  OTHER OBSERVATIONS SOUTHEAST NORTH DAKOTA *****

CITY           SKY/WX    TMP DP  RH WIND       PRES   REMARKS
COOPERSTOWN    FAIR      -2  -8  78 W16       30.28R WCI -23
VALLEY CITY    FAIR      -2  -8  78 SW9       30.32R WCI -18
OAKES            N/A     -6 -11  77 SW13      30.36S WCI -25
GWINNER          N/A     -8 -13  77 SW10      30.36R WCI -26
SHEYENNE NWR     N/A     -8 -14  74 SW7       29.95S WCI -23
BUFFALO          N/A      1  -6  69 N13         N/A  WCI -16
WYNDMERE       NOT AVBL
 ***** THE ABOVE OBSERVATIONS ARE NON NWS ARE NOT QUALITY
       CONTROLLED AND MAY MIS-REPORT RAIN FOR SNOW...
$$

  *****  WEATHER ACROSS NORTHERN MINNESOTA  *****

CITY           SKY/WX    TMP DP  RH WIND       PRES   REMARKS
FLAG ISLAND    FAIR      -4  -8  84 SW12      30.17R WCI -22
WARROAD        FAIR       0  -6  78 SW9       30.20R WCI -16
ROSEAU         FAIR       1  -4  78 SW13      30.20S WCI -16
HALLOCK        FAIR      -6  -9  84 S3        30.24R
THF RVR FALLS  FAIR      -3  -8  79 SW12      30.26R WCI -21
HALSTAD        NOT AVBL
FOSSTON        FAIR      -9 -15  77 SW9       30.28R WCI -27
BAUDETTE       FAIR      -4  -8  83 S6        30.20R WCI -16
WASKISH        FAIR       1  -4  78 SW10      30.24R WCI -14
CROOKSTON      FAIR      -4  -9  77 SW10      30.31R WCI -21
$$
  *****  WEATHER ACROSS CENTRAL AND WEST MINNESOTA  *****

CITY           SKY/WX    TMP DP  RH WIND       PRES   REMARKS
BEMIDJI        FAIR      -3  -6  85 W7        30.26R WCI -16
PARK RAPIDS    FAIR     -10 -15  78 SW7       30.27R WCI -25
WADENA         FAIR      -4  -8  84 SW8       30.32R WCI -19
DETROIT LAKES  FAIR       1  -4  78 W8        30.31S WCI -12
MOORHEAD       FAIR      -2  -9  71 SW8       30.37R WCI -17
FERGUS FALLS   FAIR      -6  -9  84 SW3       30.39R
ELBOW LAKE     FAIR      -7 -11  83 SW7       30.38R WCI -21
MORRIS MN      FAIR      -2  -8  78 W6        30.39R WCI -14
STAPLES        FAIR       0  -6  78 W6        30.33R WCI -12
WHEATON        FAIR       0  -8  71 SW10      30.42S WCI -17
$$
  *****  WEATHER ELSEWHERE ACROSS MINNESOTA  *****

CITY           SKY/WX    TMP DP  RH WIND       PRES   REMARKS
DULUTH         FAIR       2  -3  80 W13       30.26R WCI -15
INTRNTL FALLS  FAIR      -6  -9  86 S3        30.21R
ELY            FAIR       1  -2  85 W6        30.23R WCI -10
CLOQUET        FAIR       1  -4  78 W7        30.30R WCI -11
BRAINERD       FAIR       0  -6  76 SW5       30.33R WCI -10
HIBBING        FAIR      -5  -7  91 SW3       30.25R
ALEXANDRIA     FAIR       2  -5  72 W13       30.34R WCI -15
SAINT CLOUD    FAIR      -4  -7  87 SW7       30.39R WCI -18
MINNEAPOLIS    FAIR       7   2  80 W7        30.43R WCI  -5
$$

  *****  WEATHER ACROSS SOUTH DAKOTA  *****

CITY           SKY/WX    TMP DP  RH WIND       PRES   REMARKS
SIOUX FALLS    FAIR       0  -6  76 W6        30.45R WCI -12
BROOKINGS      FAIR      -2  -8  76 W10       30.41R WCI -19
WATERTOWN      FAIR      -8 -12  83 SW10      30.36R WCI -26
HURON          FAIR      -4 -10  75 W6        30.46R WCI -16
SISSETON         N/A      0  -7  72 W12       30.39R WCI -17
ABERDEEN       FAIR     -13 -18  78 SW10      30.42R WCI -32
MITCHELL       FAIR      -1  -7  75 W10       30.49R WCI -17
PIERRE         NOT AVBL
MOBRIDGE       FAIR      -7 -14  71 NW6       30.34R WCI -20
RAPID CITY     FAIR      -8 -13  78 E5        30.28R WCI -19
$$

  *****  SOME WEATHER IN NEARBY STATES *****

CITY           SKY/WX    TMP DP  RH WIND       PRES   REMARKS
GLASGOW MT     FAIR     -10 -15  78 W5        30.24R WCI -22
GREAT FALLS MT CLOUDY    -4 -11  72 SW8       30.11S WCI -19
CHEYENNE WY    FAIR       5   0  79 SW9       30.11S WCI  -9
SCOTTSBLUFF NE FAIR      -7 -11  83 NE7       30.27S WCI -21
OMAHA NE       FAIR      11   4  73 N9        30.52R WCI  -2
DES MOINES IA  FAIR      15   9  76 NW13      30.46R WCI   1
DAVENPORT IA   CLOUDY    24  16  71 NW16      30.36R WCI  11
CHICAGO IL     CLOUDY    32  25  75 N13       30.25R WCI  22
EAU CLAIRE WI  FAIR       9   2  73 W8        30.38R WCI  -3
LA CROSSE WI   FAIR      15   9  76 NW9       30.41R WCI   3
$$

  *****  SOME NATIONAL WEATHER *****

CITY           SKY/WX    TMP DP  RH WIND       PRES   REMARKS
LA GUARDIA NY  FOG       52  51  97 S9        30.30F VSB<1/4
RALEIGH NC     MOCLDY    64  63  96 S8        30.44R
ATLANTA GA     LGT RAIN  67  65  93 S8        30.36S
NEW ORLEANS LA FAIR      72  72 100 SE8       30.18S
OKLAHOMA CITY  MOCLDY    23  18  81 N22       30.33R WCI   8
ALBUQUERQUE NM   N/A     31  19  61 NE5       30.11S
SALT LAKE CITY FAIR      16   6  65 SE7       30.17S WCI   6
LOS ANGELES CA FAIR      50  26  39 VRB3      30.14S
BOISE ID       MOCLDY    24   5  44 SE8       30.15F WCI  15
SEATTLE WA     FAIR      30  24  78 NE7       30.29R WCI  23
$$

*** WEATHER ACROSS MANITOBA...SASKATCHEWAN AND ONTARIO ***
                ***ONTARIO***

CITY           SKY/WX    TMP DP  RH WIND       PRES   REMARKS
GERALDTON      NOT AVBL
THUNDER BAY    NOT AVBL
SIOUX LOOKOUT  NOT AVBL
TORONTO        NOT AVBL
BIG TROUT LK   NOT AVBL
PICKLE LAKE    NOT AVBL
DRYDEN         NOT AVBL
KENORA         NOT AVBL
$$
                *** MANITOBA***

CITY           SKY/WX    TMP DP  RH WIND       PRES   REMARKS
BRANDON        NOT AVBL
DAUPHIN        NOT AVBL
ISLAND LAKE    NOT AVBL
PILOT MOUND    NOT AVBL
THE PAS        NOT AVBL
THOMPSON       NOT AVBL
WINNIPEG       NOT AVBL
$$
                ***SASKATCHEWAN***

CITY           SKY/WX    TMP DP  RH WIND       PRES   REMARKS
ESTEVAN        NOT AVBL
KINDERSLEY     NOT AVBL
LLOYDMINSTER   NOT AVBL
PRINCE ALBERT  NOT AVBL
REGINA         NOT AVBL
YORKTON        NOT AVBL
N. BATTLEFORD  NOT AVBL
LA RONGE       NOT AVBL
SASKATOON      NOT AVBL


USA.gov is the U.S. government's official web portal to all federal, state and local government web resources and services.